Nantang, China

6:08 AM CST on October 24, 2019 (GMT +0800)
Nantang

Weather History for 58238 - September, 2019

Change the Weather History Date:

Tuesday, September 17, 2019

  Actual Average Record
Temperature  
Mean Temperature 78 °F -  
Max Temperature 87 °F - - ()
Min Temperature 68 °F - - ()
Cooling Degree Days 12    
Growing Degree Days 28 (Base 50)    
Moisture  
Dew Point 64 °F    
Average Humidity 62    
Maximum Humidity 94    
Minimum Humidity 25    
Precipitation  
Precipitation 0.00 in - - ()
Sea Level Pressure  
Sea Level Pressure 29.99 in    
Wind  
Wind Speed 5 mph ()    
Max Wind Speed 11 mph    
Max Gust Speed -    
Visibility 6.9 miles    
Events      
T = Trace of Precipitation, MM = Missing Value Source: Averaged Metar Reports

Daily Weather History Graph

Daily Weather History Graph

Search for Another Location

Airport or City:

Astronomy

Sep. 17, 2019 Rise Set
Actual Time 5:49 AM CST 6:09 PM CST
Civil Twilight 5:25 AM CST 6:33 PM CST
Nautical Twilight 4:56 AM CST 7:02 PM CST
Astronomical Twilight 4:27 AM CST 7:31 PM CST
Moon 8:04 PM CST (9/17) 8:13 AM CST (9/17)
Length of Visible Light 13h 08m
Length of Day
12h 19m
Waning Gibbous, 92% of the Moon is Illuminated
Sep 17
Waning Gibbous
Sep 22
Last Quarter
Sep 29
New
Oct 6
First Quarter
Oct 14
Full

Hourly Weather History & Observations

Time (CST) Temp. Heat Index Dew Point Humidity Pressure Visibility Wind Dir Wind Speed Gust Speed Precip Events Conditions
12:00 AM 73.4 °F - 64.4 °F 73% 29.95 in - NE 4.5 mph - N/A   Clear
1:00 AM 71.6 °F - 64.4 °F 78% 29.95 in 5.6 mi NE 4.5 mph - N/A   Unknown
2:00 AM 70 °F - 65 °F 79% 29.96 in 4 mi North 4.5 mph - -   Mist
2:00 AM 71.6 °F - 64.4 °F 78% 29.95 in 5.0 mi NE 4.5 mph - N/A   Unknown
3:00 AM 68.0 °F - 66.2 °F 94% 29.95 in 4.3 mi NNE 2.2 mph - N/A   Unknown
4:00 AM 68.0 °F - 64.4 °F 88% 29.95 in 3.7 mi ENE 2.2 mph - N/A   Unknown
5:00 AM 70 °F - 64 °F 74% 29.99 in 4 mi NNE 4.5 mph - -   Mist
5:00 AM 69.8 °F - 64.4 °F 83% 29.98 in 3.7 mi ENE 2.2 mph - N/A   Unknown
6:00 AM 69.8 °F - 64.4 °F 83% 29.98 in 3.1 mi NE 2.2 mph - N/A   Mist
7:00 AM 71.6 °F - 64.4 °F 78% 30.01 in 3.7 mi Variable 2.2 mph - N/A   Unknown
8:00 AM 76 °F - 67 °F 65% 30.02 in 5 mi NE 4.5 mph - -   Scattered Clouds
8:00 AM 75.2 °F - 64.4 °F 69% 30.01 in 3.7 mi ENE 8.9 mph - N/A   Unknown
9:00 AM 78.8 °F - 68.0 °F 69% 30.04 in 5.0 mi East 11.2 mph - N/A   Unknown
10:00 AM 78.8 °F - 64.4 °F 61% 30.04 in 6.2 mi ENE 6.7 mph - N/A   Partly Cloudy
11:00 AM 83 °F - 63 °F 40% 30.02 in 12 mi East 6.7 mph - -   Mostly Cloudy
11:00 AM 82.4 °F 83.9 °F 64.4 °F 54% 30.01 in 6.2 mi Variable 4.5 mph - N/A   Scattered Clouds
12:00 PM 86.0 °F 86.6 °F 62.6 °F 45% 29.98 in 6.2 mi ENE 4.5 mph - N/A   Partly Cloudy
1:00 PM 86.0 °F 85.4 °F 59.0 °F 40% 29.98 in 6.2 mi East 8.9 mph - N/A   Partly Cloudy
2:00 PM 86 °F - 55 °F 25% 29.96 in 16 mi ENE 8.9 mph - -   Mostly Cloudy
2:00 PM 87.8 °F 87.6 °F 60.8 °F 40% 29.95 in 6.2 mi East 6.7 mph - N/A   Partly Cloudy
3:00 PM 86.0 °F 86.1 °F 60.8 °F 43% 29.95 in 6.2 mi ENE 6.7 mph - N/A   Partly Cloudy
4:00 PM 86.0 °F 86.1 °F 60.8 °F 43% 29.95 in 6.2 mi ENE 8.9 mph - N/A   Partly Cloudy
5:00 PM 83 °F - 61 °F 37% 29.98 in 15 mi NNE 8.9 mph - -   Mostly Cloudy
5:00 PM 82.4 °F 83.4 °F 62.6 °F 51% 29.98 in - ENE 8.9 mph - N/A   Clear
6:00 PM 80.6 °F 81.8 °F 62.6 °F 54% 29.98 in - NE 4.5 mph - N/A   Clear
7:00 PM 80.6 °F 82.3 °F 64.4 °F 58% 30.01 in - NE 8.9 mph - N/A   Clear
8:00 PM 78 °F - 65 °F 56% 30.03 in 14 mi North 6.7 mph - -   Overcast
8:00 PM 78.8 °F - 64.4 °F 61% 30.01 in - NE 6.7 mph - N/A   Clear
9:00 PM 78.8 °F - 64.4 °F 61% 30.04 in - NE 6.7 mph - N/A   Clear
10:00 PM 77.0 °F - 64.4 °F 65% 30.04 in - NE 4.5 mph - N/A   Clear
11:00 PM 75 °F - 65 °F 64% 30.05 in 14 mi NE 6.7 mph - -   Scattered Clouds
11:00 PM 75.2 °F - 64.4 °F 69% 30.04 in - NE 4.5 mph - N/A   Clear